Location: Unspecified
(35.6961°N, 0.0000°E)
Time: 00:54:30
(UTC+00:00)

POLYITAN 1 - Visible Passes

Search period start: 17 June 2019 00:00
Search period end: 27 June 2019 00:00
Orbit: 591 x 613 km, 97.9° (Epoch: 16 June)

Date Brightness Start Highest point End Pass type
(mag) Time Alt. Az. Time Alt. Az. Time Alt. Az.
17 Jun ? 00:57:58 10° N 01:00:32 31° NNW 01:00:32 31° NNW visible
17 Jun ? 23:34:54 10° NE 23:35:37 13° ENE 23:35:37 13° ENE visible
18 Jun ? 01:09:55 10° N 01:12:24 26° NW 01:12:24 26° NW visible
18 Jun ? 23:46:10 10° NE 23:47:29 17° NE 23:47:29 17° NE visible
19 Jun ? 01:21:58 10° NNW 01:24:17 21° NW 01:24:17 21° NW visible
19 Jun ? 23:57:36 10° NNE 23:59:22 21° NE 23:59:22 21° NE visible
20 Jun ? 01:34:10 10° NNW 01:36:09 16° NW 01:36:09 16° NW visible
21 Jun ? 00:09:08 10° NNE 00:11:14 27° NE 00:11:14 27° NE visible
21 Jun ? 01:46:40 10° NW 01:48:01 12° WNW 01:48:01 12° WNW visible
22 Jun ? 00:20:45 10° NNE 00:23:06 32° NNE 00:23:06 32° NNE visible
23 Jun ? 00:32:27 10° NNE 00:34:58 35° N 00:34:58 35° N visible
24 Jun ? 00:44:14 10° N 00:46:49 35° N 00:46:49 35° N visible
25 Jun ? 00:56:04 10° N 00:58:41 32° NNW 00:58:41 32° NNW visible
25 Jun ? 23:33:09 10° NE 23:33:45 12° ENE 23:33:45 12° ENE visible
26 Jun ? 01:07:59 10° N 01:10:32 27° NW 01:10:32 27° NW visible
26 Jun ? 23:44:22 10° NE 23:45:36 16° NE 23:45:36 16° NE visible
